User: anonymous   Login
Location: Unspecified
(0.0000°N, 0.0000°E)
Time: 15:16:09
(UTC+01:00)
Language:

SWIFT - Orbit

View from above orbital plane
View from above orbital plane
View from above satellite
View from above satellite

Ground track
Ground track

The orbit data is extracted from the following two-line orbital elements,

1 28485U 04047A   14303.48200065  .00007061  00000-0  52189-3 0  8056
2 28485 020.5583 358.0452 0012492 008.7124 351.3525 14.99738200543525
Epoch (UTC): 30 October 2014 11:34:04
Eccentricity: 0.0012492
inclination: 20.5583°
perigee height: 559 km
apogee height: 576 km
right ascension of ascending node: 358.0452°
argument of perigee: 8.7124°
revolutions per day: 14.99738200
mean anomaly at epoch: 351.3525°
orbit number at epoch: 54352

The dashed part of the orbit path shows where the satellite is in the earth's shadow,  

DLR